Location: Heilbronn
(49.1548°N, 9.2780°E)
Time: 22:18:46
(UTC+01:00)

ISS - Pass Details

Date: 10 January 2018
Orbit: 401 x 407 km, 51.6° (Epoch: 17 January)

Event Time Altitude Azimuth Distance (km) Brightness Sun altitude
Exits shadow 06:32:23 42° 285° (WNW) 589 -3.5 -16.1°
Maximum altitude 06:33:22 84° 203° (SSW) 413 -3.9 -16.0°
Drops below altitude 10° 06:36:39 10° 113° (ESE) 1,464 0.4 -15.4°
Sets 06:38:44 0° 113° (ESE) 2,323 1.9 -15.1°
